Flag for Germany Past Weather in Georgsmarienhütte, Lower Saxony, Germany — Yesterday and Last 2 Weeks

Now
64 °F

Partly sunny.


Feels Like: 64 °F
Forecast: 51 / 66 °F
Wind: 16 mph from Southwest

Location: Muenster / Osnabrueck

Current Time: Jun 27, 2016 at 3:15:11 PM

Latest Report: Jun 27, 2016 at 2:20 PM


Visibility: N/A

Pressure: 30.04 "Hg

Humidity: 68%

Dew Point: 54 °F

Location of GeorgsmarienhütteLocation

Past Weather in Georgsmarienhütte — Graph

°F

Georgsmarienhütte Temperature Yesterday

Maximum temperature yesterday: 68 °F (at 3:50 PM)
Minimum temperature yesterday: 54 °F (at 4:50 AM)
Average temperature yesterday: 59 °F

High & Low Weather Summary for the Past Weeks

 TemperatureHumidityPressure
High91 °F (Jun 23, 5:20 PM)100% (Jun 12, 11:50 PM)30.24 "Hg (Jun 12, 11:50 PM)
Low48 °F (Jun 20, 1:50 AM)43% (Jun 23, 3:50 PM)29.45 "Hg (Jun 14, 5:50 PM)
Average62 °F82%29.89 "Hg
* Reported Jun 12 2:20 PM — Jun 27 2:20 PM, Georgsmarienhütte, Weather by CustomWeather, © 2016

Note: Actual official high and low records may vary slightly from our data, if they occured in-between our weather recording intervals... More about our weather records

Advertising

Georgsmarienhütte Weather History for the Previous 24 Hours

Scroll right to see more
 ConditionsComfort  
Time TempWeatherWind HumidityBarometerVisibility
2:20 PM
Mon, Jun 27
64 °FPartly sunny.16 mph68%30.04 "HgN/A
1:50 PM66 °FPartly sunny.15 mph64%30.04 "HgN/A
1:20 PM66 °FPartly sunny.13 mph64%30.04 "HgN/A
12:50 PM64 °FPartly sunny.16 mph64%30.04 "HgN/A
12:20 PM64 °FPartly sunny.14 mph64%30.04 "HgN/A
11:50 AM66 °FBroken clouds.12 mph64%30.04 "HgN/A
11:20 AM64 °FBroken clouds.15 mph60%30.04 "HgN/A
10:50 AM63 °FPartly sunny.13 mph68%30.04 "HgN/A
10:20 AM63 °FPartly sunny.13 mph68%30.04 "HgN/A
9:50 AM61 °FScattered clouds.14 mph72%30.04 "HgN/A
9:20 AM61 °FScattered clouds.12 mph72%30.04 "HgN/A
8:50 AM59 °FScattered clouds.14 mph77%30.07 "HgN/A
8:20 AM59 °FBroken clouds.12 mph82%30.04 "HgN/A
7:50 AM57 °FScattered clouds.13 mph88%30.04 "HgN/A
7:20 AM57 °FPassing clouds.8 mph88%30.04 "HgN/A
6:50 AM55 °FClear.8 mph88%30.04 "Hg5 mi
6:20 AM54 °FClear.7 mph94%30.04 "Hg5 mi
5:50 AM54 °FClear.6 mph94%30.04 "Hg6 mi
5:20 AM54 °FPassing clouds.7 mph94%30.04 "HgN/A
4:50 AM54 °FClear.6 mph94%30.04 "Hg10 mi
4:20 AM54 °FPassing clouds.7 mph94%30.04 "HgN/A
3:50 AM55 °FPassing clouds.6 mph88%30.04 "HgN/A
3:20 AM55 °FPassing clouds.5 mph88%30.04 "HgN/A
2:50 AM55 °FPassing clouds.5 mph88%30.07 "HgN/A
2:20 AM55 °FPassing clouds.5 mph88%30.07 "HgN/A
1:50 AM55 °FPassing clouds.6 mph88%30.07 "HgN/A
1:20 AM55 °FPassing clouds.6 mph88%30.04 "HgN/A
12:50 AM57 °FPassing clouds.6 mph82%30.04 "HgN/A
12:20 AM59 °FPassing clouds.5 mph77%30.04 "HgN/A
11:50 PM
Sun, Jun 26
59 °FPassing clouds.5 mph77%30.07 "HgN/A
11:20 PM57 °FPassing clouds.5 mph82%30.04 "HgN/A
10:50 PM59 °FPassing clouds.6 mph72%30.04 "HgN/A
10:20 PM59 °FPassing clouds.6 mph72%30.04 "HgN/A
9:50 PM61 °FPassing clouds.6 mph68%30.04 "HgN/A
9:20 PM61 °FPassing clouds.8 mph68%30.04 "HgN/A
8:50 PM63 °FPassing clouds.8 mph64%30.04 "HgN/A
8:20 PM63 °FPassing clouds.9 mph64%30.04 "HgN/A
7:50 PM64 °FPassing clouds.8 mph64%30.01 "HgN/A
7:20 PM63 °FPassing clouds.7 mph68%30.01 "HgN/A
6:50 PM63 °FPassing clouds.6 mph77%30.01 "HgN/A
6:20 PM61 °FScattered clouds.7 mph77%30.04 "HgN/A
5:50 PM63 °FScattered clouds.6 mph73%30.04 "HgN/A
5:20 PM61 °FScattered clouds.3 mph83%30.04 "Hg5 mi
4:50 PM55 °FSprinkles. Broken clouds.5 mph94%30.04 "Hg5 mi
4:20 PM57 °FRain showers. Partly sunny.16 mph82%30.04 "Hg5 mi
3:50 PM68 °FPartly sunny.10 mph53%30.01 "HgN/A
3:20 PM66 °FPartly sunny.12 mph56%30.01 "HgN/A
Weather by CustomWeather, © 2016

See weather overviewHow to use our weather pages